Location: Launay
(47.2429°N, 1.5727°E)
Time: 01:13:15
(UTC+00:00)

CZ-4B R/B - Pass Details

Date: 19 May 2025
Orbit: 449 x 582 km, 97.8° (Epoch: 18 June)

Event Time Altitude Azimuth Distance (km) Brightness Sun altitude
Exits shadow 20:16:07 - 173° (S) 2,671 5.9 -7.4°
Reaches altitude 10° 20:18:03 10° 177° (S) 1,872 5.1 -7.6°
Maximum altitude 20:22:05 62° 259° (WSW) 634 3.3 -8.2°
Drops below altitude 10° 20:26:01 10° 340° (NNW) 1,824 6.6 -8.6°
Sets 20:28:07 0° 344° (NNW) 2,700 7.5 -8.9°
